CDT,Max TemperatureF,Mean TemperatureF,Min TemperatureF,Max Dew PointF,MeanDew PointF,Min DewpointF,Max Humidity, Mean Humidity, Min Humidity, Max Sea Level PressureIn, Mean Sea Level PressureIn, Min Sea Level PressureIn, Max VisibilityMiles, Mean VisibilityMiles, Min VisibilityMiles, Max Wind SpeedMPH, Mean Wind SpeedMPH, Max Gust SpeedMPH,PrecipitationIn, CloudCover, Events, WindDirDegrees
2013-5-1,82,74,68,70,69,66,96,86,65,29.90,29.83,29.78,10,9,7,13,7,18,0.00,5,,123
2013-5-2,78,64,52,70,60,41,97,78,57,30.23,30.02,29.83,10,9,2,32,10,41,0.17,4,Rain,330
2013-5-3,70,58,48,41,34,28,71,45,22,30.25,30.18,30.08,10,10,10,30,22,38,0.00,2,,339
2013-5-4,73,60,48,55,47,34,74,53,36,30.11,30.01,29.91,10,10,10,17,7,25,0.00,0,,189
2013-5-5,79,66,54,57,49,43,90,56,31,30.09,30.03,29.95,10,10,10,17,10,23,0.00,0,,354
2013-5-6,81,66,51,60,52,45,80,63,35,30.13,30.06,30.00,10,10,10,13,6,,0.01,0,,126
2013-5-7,78,68,57,62,59,56,93,72,48,30.09,30.04,29.99,10,10,6,13,5,,0.00,0,,183
2013-5-8,80,74,68,68,65,62,90,75,56,30.07,30.00,29.97,10,10,10,20,11,25,0.00,2,,148
2013-5-9,80,76,73,72,71,68,94,86,74,29.98,29.93,29.85,10,9,7,18,11,28,0.00,8,,143
2013-5-10,82,74,66,73,69,64,94,83,58,29.99,29.91,29.82,10,7,1,25,11,32,0.00,6,Rain-Thunderstorm,105
2013-5-11,89,78,68,67,64,60,93,69,43,30.09,30.01,29.96,10,10,10,15,9,17,0.00,1,Rain,8
2013-5-12,82,74,66,64,58,50,75,59,37,30.17,30.12,30.04,10,10,10,15,10,21,0.00,1,,47
2013-5-13,82,72,61,64,61,57,87,70,47,30.26,30.21,30.17,10,10,8,17,7,23,0.00,1,,94
2013-5-14,82,74,66,70,67,62,90,76,62,30.23,30.17,30.10,10,10,6,18,9,24,0.00,3,,146
2013-5-15,81,76,73,72,69,66,90,80,72,30.14,30.04,29.92,10,10,2,24,15,32,0.05,5,Rain-Thunderstorm,154
2013-5-16,82,78,75,72,71,69,89,79,69,29.93,29.87,29.80,10,9,6,22,17,29,0.00,7,,163
2013-5-17,84,80,75,74,72,71,89,82,65,29.94,29.87,29.83,9,8,3,18,14,25,0.00,6,,158
2013-5-18,87,82,77,73,72,70,89,77,58,29.96,29.92,29.89,10,8,5,21,15,104,0.00,5,,159
2013-5-19,86,81,78,74,72,71,83,75,66,29.91,29.86,29.81,10,9,7,23,19,31,0.00,6,,159
2013-5-20,87,82,78,74,73,71,84,75,65,29.89,29.83,29.77,10,9,6,21,16,26,0.00,7,,153
2013-5-21,86,81,78,75,74,71,89,78,65,29.85,29.81,29.73,10,8,5,21,14,29,0.00,8,,153
2013-5-22,88,82,78,76,74,73,89,78,63,29.91,29.85,29.80,10,8,5,13,9,,0.00,5,,156
2013-5-23,88,83,78,75,74,72,85,77,61,30.03,29.94,29.88,10,10,8,17,10,53,0.00,5,,131
2013-5-24,88,84,79,75,74,73,85,75,62,30.12,30.06,29.99,10,10,10,18,12,23,0.00,3,,132
2013-5-25,88,82,78,74,72,70,82,74,61,30.14,30.08,30.04,10,10,10,18,12,37,0.00,2,,135
2013-5-26,88,82,77,72,71,68,84,71,55,30.10,30.06,30.01,10,10,10,17,11,30,0.00,1,,152
2013-5-27,88,82,78,73,71,70,79,70,57,30.03,29.98,29.92,10,10,10,21,14,28,0.00,2,,158
2013-5-28,88,83,78,73,71,70,79,70,59,29.95,29.89,29.85,10,10,10,24,19,32,0.00,5,,151
2013-5-29,84,82,80,74,73,72,79,75,69,29.87,29.84,29.79,10,10,10,25,17,34,0.00,6,,149
2013-5-30,90,84,80,76,74,73,85,76,63,29.87,29.83,29.80,10,10,9,22,16,29,0.00,6,,150
2013-5-31,90,84,80,76,75,73,85,76,62,29.91,29.86,29.83,10,10,10,18,13,23,0.00,4,,158